[[{"header":{"parameterUnit":"m.s-1","parameterCategory":2,"la1":30.2991,"la2":30.254,"lo1":-89.0895,"lo2":-89.0444,"dy":0.0017,"dx":0.0017,"nx":28,"ny":28,"refTime":"2025-04-03T09:00:00:Z","depth":"0","parameterNumber":2,"parameterNumberName":"U-component_of_CURRENTS"},"data":[0,0,0,0,0,0,0,0,0,0,0,0,0,0,0,0,0,0,0,0,0,0,0,0,0,0,0,0,0,0,0,0,0,0,0,0,0,0,0,0,0,0,0,0,0,0,0,0,0,0,0,0,0,0,0,0,0,0,0.2681,0.2681,0,0.2683,0.2683,0.2683,0.2661,0.266,0.266,0.266,0.2627,0.2626,0.2626,0,0,0,0,0,0,0,0,0,0,0,0,0,0.2651,0.2652,0.2681,0.2681,0.2682,0.2683,0.2683,0.2683,0.2661,0.266,0.266,0.2659,0.2627,0.2626,0.2626,0,0,0,0,0,0,0,0,0,0,0,0,0,0.2658,0.2652,0.2681,0.2672,0.2672,0.2684,0.2683,0.2683,0.2661,0.266,0.266,0.2659,0.2627,0.2626,0.2626,0.2634,0,0,0.2623,0.2623,0,0,0,0,0,0,0,0,0.2658,0.2659,0.2673,0.2673,0.2672,0.2673,0.2661,0.2666,0.2661,0.2663,0.266,0.2659,0.2641,0.2639,0.2638,0.2632,0.2631,0.2623,0.2623,0.2623,0.2622,0,0,0,0,0,0,0,0.2657,0.2659,0.268,0.2674,0.2673,0.2666,0.2666,0.2662,0.2653,0.2663,0.2662,0.2665,0.264,0.2639,0.2637,0.2631,0.2623,0.2623,0.2622,0.2622,0.2663,0.2665,0,0,0,0,0,0,0.2662,0.2658,0.268,0.268,0.2666,0.2667,0.2667,0.2672,0.2654,0.2651,0.2666,0.2664,0.2641,0.2638,0.2636,0.2665,0.2623,0.2622,0.2622,0.2662,0.2664,0.2665,0,0,0,0,0,0,0.2662,0.2664,0.268,0.2671,0.2673,0.2669,0.2674,0.2672,0.2676,0.2657,0.2653,0.2672,0.264,0.2637,0.2644,0.2663,0.2622,0.2621,0.266,0.2662,0.2664,0.271,0,0,0,0,0,0,0.2661,0.2664,0.2668,0.2671,0.2673,0.2694,0.2675,0.2673,0.268,0.2678,0.2661,0.2657,0.2639,0.2645,0.2643,0.2661,0.262,0.2658,0.2661,0.2664,0.2707,0.2714,0.272,0,0,0,0,0,0.266,0.2667,0.2668,0.2671,0.2679,0.2695,0.2696,0.2689,0.2681,0.2688,0.2681,0.2658,0.2662,0.2646,0.2643,0.2661,0.2657,0.266,0.2663,0.2704,0.2713,0.272,0,0,0,0,0,0,0.2654,0.2666,0.2667,0.2677,0.269,0.2692,0.2698,0.2697,0.2697,0.2695,0.2673,0.2669,0.2687,0.2672,0.2654,0.2685,0.2658,0.2661,0.269,0.2697,0.2704,0.2708,0.262,0,0,0,0,0,0.2658,0.2666,0.2679,0.2688,0.2697,0.2701,0.2706,0.2706,0.2708,0.2707,0.2696,0.2692,0.2699,0.2695,0.2698,0.2708,0.2714,0.2721,0.2728,0.2733,0.2737,0.2772,0.2782,0.2676,0.2676,0.2676,0,0,0.2657,0.2666,0.267,0.2688,0.2696,0.2711,0.2702,0.2718,0.2729,0.2704,0.2714,0.2716,0.271,0.2727,0.2733,0.2713,0.2769,0.2738,0.2742,0.2743,0.2776,0.2786,0.2795,0.2679,0.2678,0.2678,0,0,0.2662,0.2673,0.2681,0.2696,0.2716,0.2723,0.2732,0.2743,0.2748,0.2763,0.2756,0.2772,0.2767,0.2774,0.2775,0.282,0.2808,0.2822,0.2848,0.2882,0.2891,0.2898,0.2929,0.2939,0.2818,0.2818,0.2818,0,0.2661,0.2673,0.2687,0.2702,0.2715,0.2731,0.2747,0.276,0.2771,0.2784,0.2771,0.2799,0.2792,0.2824,0.2839,0.2834,0.285,0.2815,0.289,0.2898,0.2905,0.2934,0.2944,0.282,0.282,0.282,0.282,0,0.267,0.2684,0.2694,0.2717,0.2735,0.2754,0.2779,0.2799,0.2808,0.282,0.2856,0.2857,0.2872,0.2879,0.2868,0.292,0.2915,0.2899,0.2867,0.2918,0.2946,0.2956,0.2824,0.2823,0.2822,0.2822,0,0,0.2655,0.2691,0.2694,0.2703,0.2746,0.2756,0.2796,0.2832,0.2856,0.2876,0.2909,0.2931,0.2939,0.2943,0.2942,0.2968,0.3032,0.2954,0.2955,0.298,0.3111,0.3114,0.3125,0.303,0.3031,0.3033,0.3113,0,0.2656,0.2675,0.2702,0.2724,0.2737,0.2776,0.281,0.2847,0.2879,0.2916,0.2944,0.2973,0.2962,0.2973,0.3003,0.3029,0.3059,0.3012,0.3062,0.3064,0.3056,0.3137,0.3086,0.3153,0.3123,0.3124,0.3125,0,0.2652,0.2666,0.2683,0.2724,0.2735,0.2754,0.2811,0.2845,0.2916,0.2944,0.2991,0.3013,0.3069,0.3043,0.312,0.3092,0.3108,0.3122,0.3125,0.3117,0.3086,0.3097,0.3172,0.3155,0.314,0.3139,0.3138,0,0.2615,0.2653,0.2661,0.2674,0.2725,0.2744,0.2779,0.2849,0.2886,0.2965,0.3003,0.3067,0.3105,0.3143,0.3187,0.3156,0.327,0.3227,0.3247,0.3246,0.3207,0.3201,0.3266,0.3282,0.3281,0.3281,0.3281,0,0.2598,0.2603,0.264,0.264,0.2661,0.2713,0.2749,0.2802,0.2883,0.2932,0.301,0.3066,0.3133,0.3205,0.3222,0.3286,0.3304,0.3276,0.3278,0.3223,0.3218,0.3202,0.3165,0.3284,0.3283,0.3283,0.3282,0,0.2549,0.2574,0.2582,0.2626,0.2639,0.2652,0.2721,0.2752,0.2845,0.2916,0.2946,0.3082,0.3188,0.3258,0.3338,0.3338,0.3316,0.3397,0.3333,0.3326,0.3302,0.3269,0.3138,0.3046,0.3426,0.3426,0.3427,0,0.2523,0.2522,0.2553,0.2556,0.2571,0.26,0.2625,0.2716,0.2763,0.2921,0.2958,0.3101,0.3197,0.3348,0.3394,0.3458,0.3347,0.3422,0.335,0.3322,0.3287,0.3097,0.3013,0.3318,0.3318,0.3318,0.3318,0,0.2475,0.2486,0.2492,0.2499,0.2511,0.2526,0.2576,0.2608,0.2727,0.2805,0.2932,0.3029,0.3225,0.3307,0.3421,0.3436,0.329,0.3417,0.3407,0.3235,0.3013,0.2918,0.3243,0.3315,0.3315,0.3316,0.3316,0.3316,0.2437,0.2427,0.2436,0.2434,0.2443,0.2444,0.2431,0.2509,0.2571,0.2676,0.2835,0.296,0.3197,0.3369,0.3366,0.3392,0.3273,0.3333,0.3305,0.3122,0.2996,0.3323,0.3383,0.3383,0.3384,0.3384,0.3385,0,0.2386,0.2377,0.2373,0.2353,0.2323,0.2359,0.2385,0.2366,0.2401,0.2572,0.2677,0.2924,0.3087,0.3247,0.3402,0.3329,0.3115,0.3249,0.2992,0.2921,0.3264,0.323,0.3238,0.3238,0.3238,0.3238,0.3238,0.3238,0.2358,0.2326,0.2315,0.2236,0.2218,0.2147,0.2138,0.2142,0.2235,0.2359,0.2502,0.2665,0.3031,0.3326,0.3374,0.3286,0.3048,0.2907,0.2849,0.3161,0.3166,0.3171,0.3134,0.3121,0.3121,0.2398,0.2393,0.239]},{"header":{"parameterUnit":"m.s-1","parameterCategory":2,"la1":30.2991,"la2":30.254,"lo1":-89.0895,"lo2":-89.0444,"dy":0.0017,"dx":0.0017,"nx":28,"ny":28,"refTime":"2025-04-03T09:00:00:Z","depth":"0","parameterNumber":3,"parameterNumberName":"V-component_of_CURRENTS"},"data":[0,0,0,0,0,0,0,0,0,0,0,0,0,0,0,0,0,0,0,0,0,0,0,0,0,0,0,0,0,0,0,0,0,0,0,0,0,0,0,0,0,0,0,0,0,0,0,0,0,0,0,0,0,0,0,0,0,0,0.0136,0.0135,0,0.0063,0.0062,0.0061,0.0017,0.0017,0.0017,0.0017,-0.008,-0.0082,-0.0085,0,0,0,0,0,0,0,0,0,0,0,0,0,0.0188,0.0188,0.0136,0.0135,0.0134,0.0063,0.0062,0.006,0.0017,0.0017,0.0017,0.0017,-0.0079,-0.0082,-0.0085,0,0,0,0,0,0,0,0,0,0,0,0,0,0.0144,0.0187,0.0136,0.0105,0.0102,0.0063,0.0062,0.006,0.0017,0.0017,0.0017,0.0017,-0.0078,-0.0082,-0.0085,-0.0107,0,0,-0.0097,-0.0099,0,0,0,0,0,0,0,0,0.0146,0.0142,0.0111,0.0107,0.0104,0.005,0.0045,0.0004,0.0017,0.0048,0.0017,0.0017,-0.0037,-0.0044,-0.006,-0.0112,-0.0116,-0.0097,-0.01,-0.0101,-0.0102,0,0,0,0,0,0,0,0.015,0.0144,0.0105,0.011,0.0106,0.0078,0.0072,0.0036,0.0005,0.0045,0.0042,0.0036,-0.004,-0.0056,-0.0063,-0.0117,-0.0097,-0.0101,-0.0103,-0.0104,-0.0185,-0.0185,0,0,0,0,0,0,0.0165,0.0148,0.0108,0.0103,0.0127,0.0077,0.007,0.0066,0.0005,-0.0003,0.0036,0.0035,-0.005,-0.0058,-0.0066,-0.0076,-0.0101,-0.0105,-0.0107,-0.0185,-0.0185,-0.0185,0,0,0,0,0,0,0.0166,0.0162,0.0111,0.0125,0.0117,0.0077,0.0072,0.0065,0.0052,-0.0,-0.001,0.0032,-0.005,-0.0061,-0.0089,-0.0081,-0.0106,-0.011,-0.0185,-0.0185,-0.0185,-0.0108,0,0,0,0,0,0,0.0168,0.0163,0.0165,0.0126,0.0117,0.0096,0.0072,0.0063,0.0049,0.0046,-0.0007,-0.0016,-0.0051,-0.0083,-0.0093,-0.0086,-0.0113,-0.0185,-0.0185,-0.0185,-0.0111,-0.0105,-0.0101,0,0,0,0,0,0.017,0.0176,0.0166,0.0161,0.0121,0.0097,0.0089,0.0059,0.005,0.0047,0.0013,-0.0014,-0.0089,-0.0086,-0.0098,-0.0092,-0.0185,-0.0185,-0.0185,-0.0113,-0.0106,-0.0101,0,0,0,0,0,0,0.02,0.0172,0.0159,0.0157,0.0133,0.009,0.0087,0.0066,0.0036,0.0036,-0.0014,-0.0025,-0.0048,-0.0082,-0.0077,-0.0115,-0.0142,-0.0144,-0.0083,-0.0078,-0.0073,-0.0049,-0.0116,0,0,0,0,0,0.0209,0.0207,0.0173,0.0173,0.0164,0.0127,0.0114,0.0095,0.0063,0.0051,0.0014,-0.0024,-0.0057,-0.0075,-0.0111,-0.0131,-0.016,-0.0136,-0.013,-0.0126,-0.0115,-0.0154,-0.0151,-0.0184,-0.0184,-0.0184,0,0,0.0221,0.0206,0.0204,0.0179,0.0159,0.0156,0.0119,0.0106,0.0105,0.0045,0.0033,-0.0008,-0.0059,-0.008,-0.0093,-0.0106,-0.0132,-0.0125,-0.0121,-0.0113,-0.0153,-0.015,-0.0147,-0.0183,-0.0183,-0.0184,0,0,0.0249,0.0231,0.0241,0.0226,0.0203,0.018,0.0182,0.0145,0.013,0.0108,0.0069,0.0038,-0.0016,-0.0046,-0.0069,-0.0059,-0.0104,-0.0074,-0.0029,-0.0066,-0.0064,-0.0062,-0.0089,-0.009,-0.0071,-0.0071,-0.007,0,0.0266,0.0272,0.024,0.0246,0.0243,0.0198,0.0212,0.0188,0.0147,0.0141,0.0116,0.0046,0.0002,-0.0019,-0.0017,-0.0045,-0.0072,-0.0045,-0.0058,-0.0057,-0.0056,-0.0084,-0.0087,-0.0067,-0.0067,-0.0068,-0.0068,0,0.0299,0.0305,0.031,0.0306,0.0298,0.0301,0.027,0.026,0.0235,0.0208,0.0179,0.0116,0.0078,0.0055,0.0021,0.0007,-0.0015,-0.0046,-0.0068,-0.0048,-0.008,-0.0083,-0.0062,-0.0063,-0.0064,-0.0065,0,0,0.0339,0.0336,0.0339,0.0353,0.0333,0.0333,0.0334,0.0322,0.0331,0.0277,0.0279,0.0212,0.0176,0.0148,0.0097,0.0062,0.0041,0.0017,0.0013,0.0001,-0.0035,-0.0045,-0.005,0.0007,0.0006,0.0006,-0.0056,0,0.0378,0.0409,0.0394,0.0429,0.0446,0.0415,0.0424,0.0407,0.0379,0.0367,0.0299,0.0276,0.0212,0.0196,0.0151,0.0071,0.0034,0.0061,-0.0062,-0.0065,-0.0068,-0.0054,-0.0016,-0.0068,-0.006,-0.0061,-0.0061,0,0.042,0.0436,0.0475,0.0502,0.0507,0.0517,0.053,0.0532,0.05,0.0475,0.0434,0.0381,0.0327,0.0264,0.0144,0.0164,0.0076,0.0006,0.0001,-0.0035,-0.0082,-0.009,-0.0075,-0.0209,-0.0067,-0.0067,-0.0066,0,0.047,0.0499,0.0535,0.054,0.0554,0.057,0.0579,0.0565,0.0585,0.0544,0.0547,0.0464,0.0433,0.0312,0.0173,0.0157,0.0038,-0.0006,-0.0099,-0.01,-0.0105,-0.0107,-0.0224,-0.0093,-0.0093,-0.0093,-0.0093,0,0.052,0.0551,0.0561,0.0579,0.0635,0.0625,0.0672,0.0664,0.0669,0.0703,0.0609,0.0618,0.0443,0.0356,0.021,0.0056,0.0063,-0.0082,-0.0116,-0.0078,-0.0076,-0.0224,-0.0327,-0.0095,-0.0095,-0.0094,-0.0094,0,0.0568,0.0571,0.0618,0.0643,0.0657,0.0696,0.0744,0.0781,0.0768,0.0808,0.0805,0.0739,0.0628,0.0451,0.0262,0.0119,-0.013,-0.0099,-0.0035,-0.0061,-0.0274,-0.0373,-0.0539,-0.0658,-0.0209,-0.0209,-0.021,0,0.0594,0.0621,0.0667,0.0702,0.0713,0.0765,0.0809,0.0825,0.0875,0.089,0.0927,0.0845,0.0813,0.0537,0.0276,0.0029,-0.0143,-0.012,-0.0151,-0.0272,-0.0409,-0.047,-0.0564,-0.0129,-0.0129,-0.0128,-0.0128,0,0.0647,0.0658,0.0695,0.0765,0.0816,0.0882,0.0947,0.1006,0.1036,0.1082,0.1135,0.1118,0.0871,0.0665,0.0319,0.0124,-0.0229,-0.0125,-0.0271,-0.037,-0.0424,-0.0557,-0.01,-0.0127,-0.0127,-0.0127,-0.0127,-0.0127,0.0686,0.0721,0.0767,0.0836,0.09,0.0989,0.1055,0.1142,0.1244,0.1338,0.1314,0.1351,0.1039,0.0591,0.0284,-0.0191,-0.0239,-0.0321,-0.0434,-0.0485,-0.0595,-0.0126,-0.0182,-0.0183,-0.0183,-0.0183,-0.0184,0,0.0736,0.0771,0.0836,0.0916,0.0994,0.1019,0.1144,0.1225,0.1359,0.149,0.1554,0.1504,0.1078,0.0625,-0.0015,-0.0396,-0.0574,-0.0612,-0.069,-0.078,-0.0364,-0.0354,-0.0423,-0.0423,-0.0423,-0.0423,-0.0423,-0.0422,0.0761,0.0825,0.0853,0.0977,0.1037,0.1147,0.1222,0.1357,0.1491,0.1691,0.1806,0.1866,0.1632,0.0412,-0.041,-0.0663,-0.0984,-0.1021,-0.1219,-0.0915,-0.0896,-0.0877,-0.0889,-0.107,-0.1071,-0.1564,-0.1569,-0.1572]}],[{"header":{"parameterUnit":"m.s-1","parameterCategory":2,"la1":30.2991,"la2":30.254,"lo1":-89.0895,"lo2":-89.0444,"dy":0.0017,"dx":0.0017,"nx":28,"ny":28,"refTime":"2025-04-03T09:00:00:Z","depth":"2","parameterNumber":2,"parameterNumberName":"U-component_of_CURRENTS"},"data":[0,0,0,0,0,0,0,0,0,0,0,0,0,0,0,0,0,0,0,0,0,0,0,0,0,0,0,0,0,0,0,0,0,0,0,0,0,0,0,0,0,0,0,0,0,0,0,0,0,0,0,0,0,0,0,0,0,0,0.2672,0.2672,0,0.2676,0.2676,0.2676,0.2657,0.2656,0.2656,0.2656,0.2628,0.2627,0.2627,0,0,0,0,0,0,0,0,0,0,0,0,0,0.2641,0.2641,0.2672,0.2672,0.2672,0.2676,0.2676,0.2676,0.2657,0.2656,0.2656,0.2656,0.2628,0.2627,0.2627,0,0,0,0,0,0,0,0,0,0,0,0,0,0.2649,0.2641,0.2672,0.2665,0.2664,0.2676,0.2676,0.2676,0.2657,0.2656,0.2656,0.2655,0.2628,0.2628,0.2627,0.2635,0,0,0.2625,0.2625,0,0,0,0,0,0,0,0,0.2648,0.265,0.2665,0.2665,0.2665,0.2667,0.2655,0.2661,0.2657,0.2658,0.2656,0.2655,0.264,0.2638,0.2638,0.2633,0.2632,0.2625,0.2625,0.2624,0.2624,0,0,0,0,0,0,0,0.2648,0.2649,0.2671,0.2666,0.2665,0.2659,0.266,0.2656,0.265,0.2658,0.2657,0.266,0.2639,0.2638,0.2637,0.2632,0.2625,0.2625,0.2624,0.2624,0.2667,0.2669,0,0,0,0,0,0,0.2652,0.2649,0.2671,0.2672,0.2657,0.266,0.2661,0.2665,0.265,0.2648,0.2661,0.266,0.264,0.2638,0.2636,0.2667,0.2624,0.2624,0.2624,0.2666,0.2668,0.2669,0,0,0,0,0,0,0.2652,0.2654,0.2671,0.2662,0.2664,0.2662,0.2667,0.2666,0.2671,0.2654,0.265,0.2668,0.2639,0.2637,0.2645,0.2665,0.2624,0.2623,0.2664,0.2666,0.2668,0.2714,0,0,0,0,0,0,0.2651,0.2654,0.2659,0.2662,0.2665,0.2686,0.2668,0.2666,0.2675,0.2673,0.2659,0.2655,0.2639,0.2646,0.2645,0.2663,0.2623,0.2662,0.2665,0.2668,0.2711,0.2718,0.2723,0,0,0,0,0,0.265,0.2657,0.2659,0.2662,0.2671,0.2687,0.2687,0.2682,0.2676,0.2683,0.2677,0.2656,0.2663,0.2647,0.2645,0.2663,0.2661,0.2664,0.2668,0.2708,0.2716,0.2723,0,0,0,0,0,0,0.2645,0.2657,0.2658,0.2669,0.2682,0.2684,0.2691,0.269,0.2692,0.2691,0.2671,0.2668,0.2686,0.2672,0.2655,0.2687,0.266,0.2663,0.2692,0.27,0.2706,0.271,0.2622,0,0,0,0,0,0.2648,0.2657,0.267,0.268,0.2689,0.2693,0.2699,0.27,0.2703,0.2703,0.2694,0.2691,0.2699,0.2696,0.2699,0.2711,0.2716,0.2725,0.2731,0.2736,0.2741,0.2774,0.2784,0.268,0.268,0.268,0,0,0.2648,0.2657,0.2661,0.268,0.2688,0.2703,0.2695,0.2711,0.2723,0.27,0.2711,0.2715,0.271,0.2728,0.2734,0.2715,0.2772,0.2741,0.2745,0.2746,0.2778,0.2788,0.2797,0.2683,0.2682,0.2682,0,0,0.2653,0.2665,0.2673,0.2688,0.2709,0.2716,0.2725,0.2737,0.2743,0.2758,0.2753,0.277,0.2767,0.2775,0.2776,0.2822,0.281,0.2824,0.285,0.2883,0.2892,0.2899,0.2928,0.2938,0.282,0.282,0.282,0,0.2652,0.2665,0.2679,0.2695,0.2708,0.2724,0.274,0.2753,0.2766,0.2779,0.2767,0.2797,0.2791,0.2824,0.2839,0.2835,0.2851,0.2817,0.2891,0.2898,0.2905,0.2933,0.2943,0.2823,0.2822,0.2822,0.2822,0,0.2661,0.2676,0.2686,0.271,0.2728,0.2747,0.2772,0.2792,0.2802,0.2815,0.2852,0.2855,0.2871,0.2878,0.2868,0.292,0.2915,0.29,0.2868,0.2918,0.2944,0.2954,0.2826,0.2825,0.2825,0.2824,0,0,0.2647,0.2684,0.2687,0.2696,0.2739,0.2749,0.2789,0.2825,0.285,0.2871,0.2904,0.2928,0.2936,0.2941,0.2941,0.2966,0.303,0.2954,0.2955,0.2978,0.3106,0.3104,0.3114,0.3028,0.303,0.3031,0.3108,0,0.2649,0.2669,0.2695,0.2718,0.2731,0.277,0.2803,0.2841,0.2873,0.291,0.2939,0.2969,0.2959,0.2971,0.3,0.3026,0.3056,0.301,0.3059,0.306,0.3048,0.3126,0.2853,0.2899,0.3117,0.3119,0.312,0,0.2646,0.266,0.2678,0.2718,0.2729,0.2749,0.2805,0.284,0.291,0.2938,0.2985,0.3008,0.3064,0.3039,0.3115,0.3088,0.3104,0.3117,0.312,0.3108,0.3076,0.2884,0.2908,0.3136,0.3134,0.3133,0.3132,0,0.2609,0.2648,0.2657,0.267,0.2721,0.274,0.2775,0.2844,0.2881,0.296,0.2998,0.3061,0.31,0.3137,0.318,0.3151,0.3261,0.322,0.3234,0.3233,0.3005,0.2982,0.3272,0.3272,0.3272,0.3272,0.3272,0,0.2593,0.2599,0.2636,0.2638,0.2659,0.2711,0.2748,0.28,0.288,0.2929,0.3006,0.306,0.3128,0.3197,0.3214,0.3273,0.3293,0.3262,0.3263,0.3016,0.2995,0.3194,0.3184,0.3275,0.3274,0.3274,0.3273,0,0.2546,0.2571,0.258,0.2624,0.2638,0.2652,0.2721,0.2752,0.2844,0.2914,0.2945,0.3077,0.3179,0.3248,0.3325,0.3322,0.3368,0.3377,0.3092,0.306,0.3304,0.3296,0.3397,0.3398,0.3398,0.3399,0.34,0,0.252,0.252,0.2552,0.2556,0.2572,0.2602,0.2628,0.2718,0.2764,0.2918,0.2954,0.3093,0.318,0.3323,0.3329,0.3379,0.3417,0.3162,0.3061,0.3332,0.3322,0.3313,0.3303,0.2769,0.2764,0.2761,0.2758,0,0.2473,0.2486,0.2492,0.25,0.2513,0.2529,0.258,0.2611,0.2727,0.28,0.2922,0.3011,0.3162,0.3115,0.3206,0.3186,0.3134,0.3089,0.3438,0.2802,0.2752,0.2739,0.2748,0.2723,0.2726,0.2729,0.2731,0.2732,0.2437,0.2428,0.2438,0.2437,0.2447,0.2448,0.2436,0.2502,0.2558,0.2631,0.2791,0.2833,0.2908,0.2921,0.2859,0.2809,0.3026,0.2879,0.2884,0.2896,0.2831,0.2788,0.2753,0.2756,0.2759,0.2762,0.2764,0,0.238,0.2379,0.2376,0.2357,0.2322,0.2366,0.2391,0.2353,0.2368,0.2472,0.2541,0.24,0.2404,0.247,0.2353,0.2396,0.2298,0.2292,0.2122,0.2162,0.2196,0.2088,0.1816,0.1813,0.1809,0.1806,0,0,0.2351,0.2318,0.2307,0.2228,0.2217,0.2139,0.2129,0.2102,0.2135,0.2114,0.2114,0.2285,0.2421,0.2076,0.2056,0.1914,0.2005,0.1835,0.2605,0.2445,0.2474,0.2561,0.2446,0,0,0,0,0]},{"header":{"parameterUnit":"m.s-1","parameterCategory":2,"la1":30.2991,"la2":30.254,"lo1":-89.0895,"lo2":-89.0444,"dy":0.0017,"dx":0.0017,"nx":28,"ny":28,"refTime":"2025-04-03T09:00:00:Z","depth":"2","parameterNumber":3,"parameterNumberName":"V-component_of_CURRENTS"},"data":[0,0,0,0,0,0,0,0,0,0,0,0,0,0,0,0,0,0,0,0,0,0,0,0,0,0,0,0,0,0,0,0,0,0,0,0,0,0,0,0,0,0,0,0,0,0,0,0,0,0,0,0,0,0,0,0,0,0,0.009,0.009,0,0.0018,0.0017,0.0017,-0.0027,-0.0027,-0.0027,-0.0027,-0.0122,-0.0124,-0.0126,0,0,0,0,0,0,0,0,0,0,0,0,0,0.0141,0.014,0.009,0.009,0.0089,0.0019,0.0017,0.0016,-0.0027,-0.0027,-0.0027,-0.0027,-0.0121,-0.0124,-0.0127,0,0,0,0,0,0,0,0,0,0,0,0,0,0.0098,0.014,0.0091,0.006,0.0057,0.0019,0.0017,0.0016,-0.0027,-0.0027,-0.0027,-0.0027,-0.012,-0.0123,-0.0127,-0.0148,0,0,-0.0138,-0.014,0,0,0,0,0,0,0,0,0.01,0.0096,0.0065,0.0062,0.0059,0.0006,0.0,-0.004,-0.0027,0.0003,-0.0027,-0.0027,-0.008,-0.0087,-0.0102,-0.0153,-0.0157,-0.0139,-0.0141,-0.0143,-0.0144,0,0,0,0,0,0,0,0.0103,0.0098,0.006,0.0065,0.006,0.0033,0.0027,-0.0008,-0.0039,0.0001,-0.0002,-0.0008,-0.0082,-0.0098,-0.0105,-0.0158,-0.0139,-0.0142,-0.0144,-0.0146,-0.0224,-0.0224,0,0,0,0,0,0,0.0118,0.0101,0.0063,0.0058,0.0081,0.0033,0.0026,0.0022,-0.0038,-0.0046,-0.0007,-0.0009,-0.0092,-0.01,-0.0108,-0.0117,-0.0143,-0.0146,-0.0148,-0.0224,-0.0224,-0.0224,0,0,0,0,0,0,0.0119,0.0115,0.0066,0.0079,0.0071,0.0033,0.0028,0.002,0.0008,-0.0043,-0.0053,-0.0011,-0.0092,-0.0103,-0.0131,-0.0122,-0.0148,-0.0151,-0.0224,-0.0224,-0.0224,-0.0148,0,0,0,0,0,0,0.0121,0.0116,0.0119,0.008,0.0071,0.0051,0.0028,0.0019,0.0006,0.0003,-0.005,-0.0059,-0.0093,-0.0125,-0.0134,-0.0128,-0.0154,-0.0225,-0.0224,-0.0224,-0.0151,-0.0145,-0.0141,0,0,0,0,0,0.0123,0.013,0.012,0.0115,0.0076,0.0052,0.0045,0.0015,0.0006,0.0004,-0.0029,-0.0057,-0.013,-0.0128,-0.0139,-0.0133,-0.0225,-0.0224,-0.0224,-0.0153,-0.0147,-0.0141,0,0,0,0,0,0,0.0154,0.0125,0.0113,0.0111,0.0088,0.0046,0.0043,0.0022,-0.0007,-0.0007,-0.0056,-0.0067,-0.0089,-0.0123,-0.0119,-0.0156,-0.0182,-0.0184,-0.0124,-0.0119,-0.0114,-0.0091,-0.0157,0,0,0,0,0,0.0163,0.0161,0.0128,0.0127,0.0119,0.0083,0.007,0.0051,0.002,0.0008,-0.0028,-0.0066,-0.0098,-0.0116,-0.0151,-0.0171,-0.02,-0.0175,-0.017,-0.0165,-0.0155,-0.0195,-0.0192,-0.0223,-0.0223,-0.0223,0,0,0.0175,0.016,0.0158,0.0134,0.0114,0.0111,0.0075,0.0063,0.0061,0.0002,-0.001,-0.005,-0.01,-0.0121,-0.0134,-0.0146,-0.0172,-0.0165,-0.016,-0.0153,-0.0194,-0.0191,-0.0188,-0.0223,-0.0223,-0.0223,0,0,0.0202,0.0186,0.0195,0.018,0.0158,0.0136,0.0137,0.0101,0.0086,0.0065,0.0026,-0.0004,-0.0057,-0.0087,-0.011,-0.0099,-0.0144,-0.0114,-0.0069,-0.0107,-0.0105,-0.0103,-0.013,-0.0131,-0.011,-0.011,-0.011,0,0.022,0.0225,0.0194,0.02,0.0198,0.0154,0.0167,0.0143,0.0103,0.0096,0.0073,0.0004,-0.0039,-0.0061,-0.0058,-0.0086,-0.0113,-0.0085,-0.0099,-0.0098,-0.0097,-0.0126,-0.0128,-0.0107,-0.0107,-0.0107,-0.0108,0,0.0252,0.0258,0.0264,0.0259,0.0251,0.0254,0.0223,0.0213,0.0189,0.0162,0.0134,0.0072,0.0034,0.0012,-0.0021,-0.0035,-0.0057,-0.0087,-0.0109,-0.0089,-0.0121,-0.0125,-0.0101,-0.0103,-0.0104,-0.0105,0,0,0.0292,0.0289,0.0291,0.0305,0.0285,0.0285,0.0286,0.0274,0.0282,0.0229,0.0231,0.0165,0.0131,0.0102,0.0053,0.0018,-0.0003,-0.0026,-0.003,-0.0042,-0.0079,-0.0089,-0.0094,-0.0037,-0.0037,-0.0037,-0.01,0,0.033,0.036,0.0345,0.0379,0.0394,0.0364,0.0373,0.0356,0.0328,0.0316,0.0249,0.0227,0.0165,0.015,0.0105,0.0026,-0.001,0.0017,-0.0106,-0.0109,-0.0112,-0.0098,-0.009,-0.0145,-0.0104,-0.0105,-0.0105,0,0.037,0.0386,0.0424,0.0449,0.0454,0.0463,0.0476,0.0477,0.0445,0.042,0.038,0.0328,0.0275,0.0215,0.0096,0.0116,0.003,-0.0039,-0.0044,-0.008,-0.0125,-0.0161,-0.0153,-0.0112,-0.0111,-0.0111,-0.011,0,0.0419,0.0447,0.0482,0.0487,0.05,0.0515,0.0524,0.0509,0.0529,0.0488,0.0491,0.0409,0.0379,0.0259,0.0124,0.0109,-0.0011,-0.0053,-0.0144,-0.0146,-0.0176,-0.018,-0.014,-0.014,-0.014,-0.014,-0.0139,0,0.0468,0.0498,0.0507,0.0525,0.0579,0.0569,0.0615,0.0607,0.0611,0.0643,0.0552,0.0559,0.0388,0.0301,0.0158,0.0007,0.0013,-0.0128,-0.0162,-0.0149,-0.015,-0.0154,-0.0155,-0.0142,-0.0141,-0.0141,-0.0141,0,0.0514,0.0517,0.0563,0.0588,0.0601,0.064,0.0686,0.0722,0.0709,0.0747,0.0744,0.0677,0.0568,0.0393,0.0207,0.0067,-0.0088,-0.0148,-0.0113,-0.0142,-0.0208,-0.0205,-0.0254,-0.0255,-0.0256,-0.0257,-0.0257,0,0.054,0.0566,0.0611,0.0646,0.0657,0.0708,0.0751,0.0766,0.0813,0.0827,0.0862,0.078,0.0743,0.0471,0.0208,-0.0037,-0.0075,-0.02,-0.0233,-0.0192,-0.022,-0.0215,-0.021,-0.0245,-0.0246,-0.0246,-0.0246,0,0.0592,0.0603,0.0639,0.0708,0.0758,0.0822,0.0886,0.0942,0.097,0.101,0.1058,0.1037,0.0787,0.0551,0.0209,0.003,-0.0161,-0.0213,-0.0185,-0.0211,-0.0187,-0.0213,-0.0208,-0.0249,-0.0249,-0.0248,-0.0248,-0.0248,0.063,0.0664,0.0709,0.0777,0.0841,0.0927,0.0991,0.106,0.1153,0.1205,0.1197,0.1152,0.0889,0.0456,0.0162,-0.0169,-0.0155,-0.0285,-0.0283,-0.0281,-0.0262,-0.0239,-0.0307,-0.0308,-0.0308,-0.0308,-0.0308,0,0.0672,0.0713,0.0777,0.0855,0.0923,0.0957,0.1078,0.1122,0.1228,0.128,0.1309,0.1052,0.0806,0.0495,0.0016,-0.0256,-0.0291,-0.0355,-0.0334,-0.0329,-0.0326,-0.0308,-0.0367,-0.0368,-0.0369,-0.037,0,0,0.0695,0.0755,0.0782,0.0898,0.0964,0.1049,0.1121,0.1193,0.1245,0.1277,0.1264,0.1233,0.0892,0.0539,0.0169,-0.0099,-0.0161,-0.0166,-0.0092,-0.002,-0.0014,-0.0261,-0.0226,0,0,0,0,0]}],[{"header":{"parameterUnit":"m.s-1","parameterCategory":2,"la1":30.2991,"la2":30.254,"lo1":-89.0895,"lo2":-89.0444,"dy":0.0017,"dx":0.0017,"nx":28,"ny":28,"refTime":"2025-04-03T09:00:00:Z","depth":"4","parameterNumber":2,"parameterNumberName":"U-component_of_CURRENTS"},"data":[0,0,0,0,0,0,0,0,0,0,0,0,0,0,0,0,0,0,0,0,0,0,0,0,0,0,0,0,0,0,0,0,0,0,0,0,0,0,0,0,0,0,0,0,0,0,0,0,0,0,0,0,0,0,0,0,0,0,0.1736,0.1737,0,0.1794,0.1794,0.1795,0.1844,0.1844,0.1845,0.1846,0.1914,0.1916,0.1917,0,0,0,0,0,0,0,0,0,0,0,0,0,0.1652,0.1653,0.1736,0.1737,0.1737,0.1794,0.1794,0.1795,0.1844,0.1844,0.1845,0.1846,0.1914,0.1915,0.1917,0,0,0,0,0,0,0,0,0,0,0,0,0,0.1695,0.1654,0.1736,0.177,0.1773,0.1793,0.1794,0.1795,0.1843,0.1844,0.1845,0.1846,0.1914,0.1915,0.1917,0.1908,0,0,0.1923,0.1923,0,0,0,0,0,0,0,0,0.1693,0.1698,0.1764,0.1767,0.1772,0.1814,0.179,0.1834,0.1843,0.1815,0.1846,0.1847,0.1882,0.1886,0.1893,0.1911,0.1914,0.1923,0.1924,0.1925,0.1925,0,0,0,0,0,0,0,0.169,0.1696,0.1757,0.1765,0.1769,0.1777,0.1784,0.1798,0.1841,0.1818,0.1822,0.183,0.1884,0.1891,0.1895,0.1915,0.1923,0.1924,0.1925,0.1926,0.2044,0.2046,0,0,0,0,0,0,0.1686,0.1693,0.1755,0.1759,0.1736,0.1778,0.1786,0.1798,0.1841,0.1849,0.1829,0.1832,0.1887,0.1893,0.1897,0.199,0.1925,0.1926,0.1927,0.2042,0.2045,0.2047,0,0,0,0,0,0,0.1684,0.1691,0.1753,0.1728,0.1737,0.1778,0.1791,0.1799,0.1843,0.185,0.1858,0.1871,0.1888,0.1895,0.1948,0.1989,0.1927,0.1929,0.204,0.2043,0.2046,0.2111,0,0,0,0,0,0,0.1681,0.169,0.1714,0.1728,0.1738,0.179,0.1791,0.1799,0.1845,0.1851,0.1888,0.1893,0.189,0.1945,0.1949,0.1991,0.193,0.2037,0.2041,0.2045,0.2106,0.2116,0.2124,0,0,0,0,0,0.1678,0.1701,0.1715,0.1724,0.1765,0.1791,0.1798,0.1828,0.1847,0.1872,0.1902,0.1894,0.1973,0.1948,0.1953,0.1996,0.2035,0.204,0.2044,0.2102,0.2114,0.2124,0,0,0,0,0,0,0.1678,0.1709,0.1725,0.1758,0.1785,0.1801,0.1832,0.185,0.1893,0.1912,0.1916,0.1924,0.1987,0.1983,0.1956,0.2042,0.2004,0.201,0.2047,0.2058,0.2066,0.2064,0.1932,0,0,0,0,0,0.1688,0.1719,0.1742,0.1775,0.1792,0.182,0.1842,0.1863,0.1893,0.1915,0.1941,0.1972,0.2002,0.2025,0.2048,0.2091,0.2089,0.2124,0.2133,0.2141,0.2143,0.2179,0.2191,0.2062,0.2062,0.2062,0,0,0.1698,0.172,0.1739,0.1778,0.1805,0.1833,0.1837,0.1883,0.1917,0.1915,0.1983,0.2007,0.2023,0.2076,0.2103,0.2082,0.2179,0.2146,0.2153,0.2151,0.2185,0.2197,0.2208,0.2065,0.2064,0.2064,0,0,0.1717,0.1754,0.1782,0.1809,0.1856,0.1871,0.1893,0.1932,0.1967,0.2023,0.2037,0.2087,0.2131,0.2152,0.2164,0.2237,0.2227,0.2254,0.2296,0.2331,0.2341,0.2351,0.237,0.238,0.2256,0.2256,0.2256,0,0.173,0.1765,0.1794,0.1825,0.1855,0.1892,0.1926,0.196,0.2016,0.2049,0.2058,0.2146,0.2164,0.2223,0.2253,0.2257,0.2271,0.2251,0.2342,0.2351,0.2359,0.2376,0.2387,0.226,0.226,0.2259,0.2259,0,0.1755,0.1798,0.182,0.1871,0.1905,0.1946,0.1989,0.204,0.2086,0.2117,0.2202,0.2231,0.228,0.2301,0.23,0.2376,0.2365,0.2349,0.231,0.2375,0.239,0.24,0.2265,0.2264,0.2263,0.2262,0,0,0.1741,0.1822,0.1833,0.1866,0.1938,0.1961,0.2033,0.2095,0.2145,0.2211,0.2275,0.234,0.2367,0.2384,0.24,0.2433,0.2508,0.2425,0.2425,0.2436,0.2586,0.2432,0.2428,0.2513,0.2515,0.2517,0.2573,0,0.1756,0.1814,0.1857,0.1921,0.1953,0.2016,0.2073,0.214,0.2201,0.2272,0.2326,0.2393,0.2395,0.2434,0.2471,0.2503,0.2537,0.2494,0.2527,0.2527,0.2377,0.2435,0.2524,0.258,0.2583,0.2584,0.2585,0,0.1757,0.18,0.1864,0.1947,0.197,0.2019,0.2117,0.2174,0.2276,0.2328,0.2405,0.2447,0.2529,0.2512,0.2598,0.2576,0.2591,0.2603,0.2605,0.2443,0.2391,0.2501,0.2603,0.2601,0.26,0.2599,0.2598,0,0.1712,0.1801,0.1855,0.1885,0.1983,0.2037,0.2098,0.2199,0.2256,0.2373,0.2426,0.2517,0.2577,0.2618,0.266,0.2642,0.2735,0.2705,0.2578,0.2568,0.2659,0.2648,0.2757,0.2757,0.2757,0.2757,0.2757,0,0.169,0.1736,0.1845,0.1872,0.1942,0.2024,0.2108,0.2182,0.2293,0.2353,0.2457,0.2507,0.2611,0.2673,0.2689,0.2664,0.2762,0.2592,0.2574,0.2686,0.2678,0.2666,0.2654,0.2759,0.2759,0.2758,0.2758,0,0.1626,0.1701,0.1766,0.1882,0.1923,0.1976,0.2105,0.2156,0.2277,0.236,0.2404,0.2533,0.2605,0.2681,0.2753,0.2684,0.2684,0.2651,0.2776,0.2764,0.2485,0.2477,0.25,0.2495,0.2491,0.2488,0.2485,0,0.1594,0.1625,0.1756,0.1797,0.1857,0.1948,0.2004,0.2135,0.2185,0.2346,0.237,0.2496,0.2561,0.2538,0.2631,0.2648,0.262,0.2597,0.2525,0.2479,0.246,0.2459,0.2456,0.2478,0.2477,0.2476,0.2475,0,0.1531,0.1598,0.1652,0.1735,0.1805,0.1865,0.1958,0.1976,0.2116,0.2244,0.2273,0.2308,0.2385,0.2433,0.2473,0.2479,0.2596,0.2553,0.256,0.2492,0.2453,0.2438,0.244,0.246,0.2463,0.2464,0.2465,0,0.1491,0.1512,0.1595,0.1651,0.1732,0.1754,0.1814,0.1864,0.1925,0.2092,0.2097,0.2228,0.2353,0.2347,0.2382,0.2381,0.2338,0.2249,0.2272,0.2289,0.2195,0.2112,0.2004,0,0,0,0,0,0.1437,0.145,0.15,0.1549,0.1622,0.1668,0.1769,0.1829,0.1956,0.1923,0.2001,0.2056,0.2096,0.2171,0.2128,0.2303,0.2359,0.2243,0.2272,0.2381,0.2397,0.2306,0,0,0,0,0,0,0.1401,0.145,0.1463,0.145,0.1463,0.1524,0.1582,0.167,0.1657,0.1794,0.183,0.1936,0.2016,0.2102,0.209,0.2113,0.2089,0.2331,0.2326,0.2371,0.2386,0.24,0.2312,0,0,0,0,0]},{"header":{"parameterUnit":"m.s-1","parameterCategory":2,"la1":30.2991,"la2":30.254,"lo1":-89.0895,"lo2":-89.0444,"dy":0.0017,"dx":0.0017,"nx":28,"ny":28,"refTime":"2025-04-03T09:00:00:Z","depth":"4","parameterNumber":3,"parameterNumberName":"V-component_of_CURRENTS"},"data":[0,0,0,0,0,0,0,0,0,0,0,0,0,0,0,0,0,0,0,0,0,0,0,0,0,0,0,0,0,0,0,0,0,0,0,0,0,0,0,0,0,0,0,0,0,0,0,0,0,0,0,0,0,0,0,0,0,0,0.0018,0.0018,0,-0.0029,-0.0029,-0.003,-0.0067,-0.0067,-0.0067,-0.0068,-0.0139,-0.014,-0.0142,0,0,0,0,0,0,0,0,0,0,0,0,0,0.0044,0.0044,0.0018,0.0018,0.0017,-0.0028,-0.0029,-0.003,-0.0067,-0.0067,-0.0068,-0.0068,-0.0138,-0.014,-0.0142,0,0,0,0,0,0,0,0,0,0,0,0,0,0.0017,0.0044,0.0018,-0.0006,-0.0008,-0.0028,-0.0029,-0.003,-0.0067,-0.0067,-0.0068,-0.0068,-0.0138,-0.014,-0.0142,-0.015,0,0,-0.015,-0.0151,0,0,0,0,0,0,0,0,0.0019,0.0016,-0.0002,-0.0004,-0.0007,-0.0041,-0.0046,-0.0071,-0.0067,-0.0046,-0.0068,-0.0068,-0.0107,-0.0112,-0.0122,-0.0153,-0.0156,-0.015,-0.0152,-0.0153,-0.0154,0,0,0,0,0,0,0,0.0021,0.0018,-0.0001,-0.0002,-0.0005,-0.0025,-0.0029,-0.0051,-0.0075,-0.0048,-0.005,-0.0053,-0.0109,-0.0119,-0.0124,-0.0157,-0.015,-0.0152,-0.0154,-0.0155,-0.0203,-0.0203,0,0,0,0,0,0,0.0031,0.002,0.0,-0.0003,0.0007,-0.0025,-0.003,-0.0031,-0.0075,-0.0081,-0.0053,-0.0055,-0.0115,-0.0121,-0.0126,-0.0131,-0.0153,-0.0155,-0.0157,-0.0204,-0.0203,-0.0203,0,0,0,0,0,0,0.0032,0.003,0.0002,0.0008,0.0004,-0.0025,-0.0026,-0.0032,-0.0041,-0.0078,-0.0085,-0.0056,-0.0115,-0.0123,-0.0141,-0.0135,-0.0156,-0.0159,-0.0204,-0.0204,-0.0203,-0.0146,0,0,0,0,0,0,0.0033,0.0031,0.0035,0.0009,0.0004,-0.0005,-0.0026,-0.0032,-0.0041,-0.0044,-0.0083,-0.009,-0.0116,-0.0137,-0.0144,-0.0138,-0.016,-0.0204,-0.0204,-0.0203,-0.0148,-0.0143,-0.014,0,0,0,0,0,0.0034,0.0043,0.0035,0.0033,0.001,-0.0004,-0.0009,-0.0031,-0.0041,-0.0041,-0.0066,-0.0089,-0.014,-0.0139,-0.0146,-0.0142,-0.0204,-0.0204,-0.0203,-0.015,-0.0144,-0.014,0,0,0,0,0,0,0.0057,0.0039,0.003,0.0034,0.0019,-0.001,-0.001,-0.0026,-0.0046,-0.0048,-0.0085,-0.0094,-0.0109,-0.0133,-0.0131,-0.0156,-0.0176,-0.0177,-0.0133,-0.0128,-0.0124,-0.0109,-0.0163,0,0,0,0,0,0.0065,0.0067,0.0045,0.0049,0.0043,0.0018,0.001,-0.0004,-0.0026,-0.0035,-0.0062,-0.009,-0.0113,-0.0125,-0.015,-0.0161,-0.0188,-0.0164,-0.016,-0.0157,-0.015,-0.0186,-0.0184,-0.0202,-0.0202,-0.0202,0,0,0.0075,0.0066,0.0067,0.0054,0.0041,0.004,0.0012,0.0006,0.0005,-0.0039,-0.0048,-0.0076,-0.0113,-0.0126,-0.0135,-0.0145,-0.0165,-0.0156,-0.0152,-0.0148,-0.0185,-0.0183,-0.0182,-0.0201,-0.0202,-0.0202,0,0,0.0096,0.0089,0.0097,0.0088,0.0074,0.006,0.0061,0.0036,0.0025,0.0013,-0.0018,-0.004,-0.0075,-0.0099,-0.0116,-0.0104,-0.0142,-0.0114,-0.0081,-0.0115,-0.0114,-0.0113,-0.014,-0.0142,-0.0112,-0.0112,-0.0112,0,0.011,0.0116,0.0097,0.0102,0.0102,0.0073,0.0083,0.0068,0.004,0.0036,0.0018,-0.0031,-0.0062,-0.0079,-0.0075,-0.0094,-0.0118,-0.0095,-0.0109,-0.0109,-0.0109,-0.0137,-0.014,-0.0109,-0.0109,-0.0109,-0.011,0,0.0133,0.014,0.0146,0.0144,0.0142,0.0145,0.0126,0.0121,0.0105,0.0086,0.0066,0.0022,-0.0006,-0.0022,-0.0045,-0.0059,-0.0077,-0.0099,-0.0119,-0.0104,-0.0134,-0.0138,-0.0105,-0.0106,-0.0107,-0.0107,0,0,0.0156,0.0161,0.0164,0.0175,0.0166,0.0168,0.0172,0.0165,0.0172,0.0136,0.0137,0.0091,0.0065,0.0045,0.0008,-0.0022,-0.0045,-0.0055,-0.0059,-0.0075,-0.0116,-0.0117,-0.0123,-0.0071,-0.0071,-0.0072,-0.0134,0,0.018,0.0204,0.0199,0.0226,0.0238,0.0223,0.0233,0.0224,0.0207,0.02,0.0151,0.0136,0.0091,0.0081,0.0043,-0.002,-0.0054,-0.0025,-0.0133,-0.0136,-0.0134,-0.0127,-0.0073,-0.0137,-0.0138,-0.0139,-0.014,0,0.0202,0.0217,0.0247,0.0273,0.0278,0.0291,0.0306,0.0311,0.0292,0.0277,0.0247,0.0211,0.0168,0.0125,0.0024,0.0044,-0.0028,-0.0084,-0.0088,-0.0112,-0.0145,-0.0158,-0.0148,-0.0147,-0.0147,-0.0146,-0.0145,0,0.0225,0.0253,0.0281,0.0288,0.0308,0.0325,0.0338,0.0335,0.0353,0.0328,0.0333,0.0268,0.0246,0.0147,0.0039,0.003,-0.0076,-0.0107,-0.0179,-0.018,-0.0185,-0.0186,-0.0184,-0.0184,-0.0184,-0.0184,-0.0184,0,0.0248,0.0273,0.0297,0.0312,0.0358,0.036,0.0402,0.0402,0.0415,0.044,0.0378,0.0378,0.0251,0.0178,0.0062,-0.0062,-0.0061,-0.0169,-0.0196,-0.016,-0.0156,-0.0188,-0.0188,-0.0186,-0.0186,-0.0185,-0.0185,0,0.0264,0.0277,0.0316,0.0351,0.0369,0.0402,0.0456,0.0487,0.0488,0.0519,0.052,0.0467,0.0371,0.0239,0.0084,-0.0019,-0.0147,-0.0196,-0.0132,-0.0156,-0.0236,-0.0232,-0.0282,-0.0282,-0.0283,-0.0283,-0.0283,0,0.0272,0.0293,0.0348,0.038,0.0398,0.0449,0.0489,0.0518,0.0554,0.0572,0.0591,0.0527,0.0467,0.0261,0.0105,-0.011,-0.0151,-0.0222,-0.0244,-0.0224,-0.0246,-0.0241,-0.0236,-0.0284,-0.0284,-0.0284,-0.0285,0,0.0288,0.0309,0.0342,0.0408,0.0459,0.0518,0.0577,0.0612,0.0647,0.0656,0.0656,0.0554,0.0447,0.0277,0.0116,-0.0046,-0.0177,-0.0228,-0.0228,-0.025,-0.0228,-0.0248,-0.0243,-0.0286,-0.0286,-0.0286,-0.0286,0,0.0301,0.0326,0.0372,0.0431,0.05,0.0564,0.0595,0.0643,0.0682,0.0706,0.0705,0.0588,0.0529,0.031,0.0159,0.0007,-0.0048,-0.0117,-0.0125,-0.0125,-0.0068,-0.0016,-0.0026,0,0,0,0,0,0.0309,0.0336,0.0392,0.0455,0.0526,0.0564,0.0645,0.0672,0.0711,0.0722,0.0718,0.062,0.0413,0.0329,0.0177,0.0121,-0.0092,-0.0067,-0.018,-0.0295,-0.0294,-0.0255,0,0,0,0,0,0,0.0311,0.036,0.0385,0.0463,0.0508,0.0587,0.0638,0.0668,0.0677,0.0699,0.0602,0.0561,0.0367,0.0499,0.0168,0.0123,0.0024,-0.0157,-0.0161,-0.0297,-0.0295,-0.0293,-0.0253,0,0,0,0,0]}]]